Starlink 1196

decayed
NORAD ID: 45103 Int'l Des: 2020-006 Owner: SPXS Country: US Constellation: starlink
LEOCIRCULAR
グループ

Starlink 1196について

説明を読み込み中...

高度履歴

Altitude vs Time

uPlot chart will show altitude changes over time

軌道要素

1 45103U 20006BM 24238.56977822 .17340107 12036-4 34588-2 0 9995
2 45103 53.0391 138.2594 0006174 228.0315 198.7881 16.30664796254323
Epoch: Aug 25, 2024 • Age: 10069 hours

現在のステータス

Position data unavailable
打ち上げ日 Jan 29, 2020
運用期間 5.7 years
落下予定日 Aug 25, 2024
タイプ internet

技術仕様

分類 Payload
質量 260.00 kg
乾燥質量 248.00 kg
総質量 260.00 kg
長さ 0.20 m
直径 2.80 m
スパン 9.00 m
形状 Box + pan
製造者 SPXS
バスタイプ Starlink
フェーズステータス Unknown Transfer Status
所有者/国 SPXS/US

大規模コンステレーション

Loading constellations...